Theta_e
292 289 287 286 290 292 291 291 292 289 287 288 285 284 285 285 286 287 287 288 288 289 287 289 289 290 292 292 293 290 290 290 291 291 292 292 292 292 292 293 293 292 292 292 292 293 294 295 298 300 300 301 304 304 303 303 302 302 301 300 299 300 300 299 299 298 298 297 296 296 295 293 293 294 293 292 292 293 293 293 293 293 293 294 294 294
294 288 288 291 293 293 292 292 289 287 289 289 287 286 286 284 287 289 291 290 289 290 285 286 287 288 290 292 293 289 289 290 291 291 292 292 292 293 293 293 293 292 290 291 291 292 292 295 298 299 301 302 302 301 301 302 302 302 302 300 299 300 300 300 300 298 298 297 296 295 293 292 292 292 291 290 291 291 292 292 291 291 291 291 292 292
289 288 291 293 291 290 291 290 289 290 288 287 287 285 285 286 286 290 289 289 289 288 288 288 288 290 290 291 292 289 290 292 293 294 294 294 293 293 293 293 292 290 291 291 292 292 292 295 298 299 301 301 302 302 302 302 302 301 301 300 300 300 300 300 299 298 295 294 294 293 292 290 289 290 290 290 290 290 290 289 289 290 289 290 291 291
287 287 292 292 290 290 289 288 288 289 288 286 285 285 286 284 287 286 286 287 290 290 285 284 287 289 290 291 291 292 292 293 293 293 294 294 294 293 293 294 293 292 291 291 291 292 292 295 298 300 301 301 301 301 301 301 301 301 301 300 300 299 298 297 296 295 294 292 291 291 290 290 289 288 289 289 289 289 289 288 288 288 288 289 289 289
290 291 293 292 292 292 289 287 287 287 287 285 287 285 284 286 287 289 287 288 287 288 287 288 288 290 291 291 292 294 293 291 293 292 292 293 293 293 292 293 294 293 292 291 291 291 292 295 298 299 301 301 300 300 300 300 300 300 300 300 299 297 297 295 294 293 292 291 290 289 289 289 289 289 288 288 287 288 288 287 287 286 287 287 287 287
290 291 290 290 289 290 290 287 288 289 285 285 285 289 290 289 288 286 286 288 284 283 284 287 283 282 281 289 291 292 288 289 292 292 293 293 292 291 292 293 293 293 293 293 292 292 293 296 297 299 301 300 300 300 300 299 299 299 298 298 298 297 295 294 293 292 291 290 289 289 288 287 287 287 287 287 285 286 286 285 285 286 285 285 284 284
290 292 292 290 289 289 289 289 287 290 288 285 287 289 291 289 288 287 286 287 281 280 286 286 284 284 284 286 288 289 288 292 293 290 293 293 292 291 292 293 292 292 291 292 292 292 293 295 297 299 299 300 300 300 300 299 298 298 297 297 297 296 294 294 292 292 292 290 291 292 291 290 289 287 284 284 285 285 284 285 284 284 283 283 284 284
291 291 290 289 289 288 287 286 289 291 289 284 286 285 288 287 287 287 286 287 284 282 285 285 281 283 286 288 290 291 290 292 293 293 292 292 292 291 292 292 292 292 292 292 292 292 293 295 297 298 299 301 301 299 297 297 297 296 296 296 295 294 293 293 292 292 292 291 291 290 290 289 288 286 284 283 283 283 284 284 283 283 282 283 283 283
291 289 289 288 288 286 288 289 290 293 289 286 287 287 286 289 287 286 286 283 283 283 282 285 285 283 283 285 286 289 288 292 293 294 295 295 292 291 291 291 292 292 292 292 292 292 293 295 297 299 299 300 300 297 295 296 296 296 296 295 294 293 292 292 291 291 291 291 290 289 287 285 285 284 283 284 284 283 283 282 282 282 282 282 282 282
291 291 292 293 291 289 288 287 290 293 290 288 287 287 286 285 283 282 282 285 282 280 282 283 286 282 286 284 287 285 288 291 292 294 295 295 292 291 291 290 291 291 291 292 292 293 293 295 297 298 298 298 298 297 295 295 295 295 295 294 293 292 292 292 291 291 289 289 289 288 286 284 283 283 283 283 282 282 281 282 281 281 281 281 282 282
291 293 292 292 291 292 289 287 287 291 291 289 288 289 286 283 281 280 280 281 282 278 284 284 286 286 283 284 287 288 288 291 293 292 292 291 288 289 290 291 290 290 290 291 291 292 293 293 295 296 296 296 297 296 295 294 294 294 294 294 292 292 292 292 291 289 288 288 287 286 285 284 283 283 282 282 281 281 281 281 280 281 281 281 281 281
290 290 291 290 291 289 291 289 287 288 288 291 286 283 286 286 279 278 276 279 277 279 283 284 286 287 281 281 284 289 289 287 290 291 292 292 290 289 289 290 290 290 290 290 291 291 291 291 292 294 295 294 295 295 294 293 294 294 294 293 292 291 291 290 289 288 287 286 285 285 285 284 284 283 283 282 281 281 281 281 280 280 280 280 281 280
287 288 287 290 291 292 288 289 288 288 290 288 286 288 283 276 275 275 272 277 277 280 282 282 284 282 284 289 286 288 291 293 290 291 292 291 291 289 289 289 290 290 290 290 290 291 290 291 291 292 294 294 293 294 294 293 293 293 293 292 291 289 289 288 287 286 285 284 284 284 284 284 284 283 283 282 282 281 281 281 280 280 280 280 280 279
286 284 287 290 291 291 294 290 284 285 288 287 288 285 282 275 276 273 269 268 272 277 279 282 283 283 283 287 292 296 298 297 295 292 291 291 292 291 289 289 289 289 290 290 290 291 290 291 291 292 293 294 293 293 293 293 292 292 292 291 290 289 287 286 285 285 284 284 284 284 284 284 284 283 282 282 282 281 281 281 281 281 281 280 281 280
280 282 288 290 289 292 295 295 293 288 288 290 287 290 286 281 276 275 277 276 277 276 277 278 279 278 279 285 287 289 290 286 283 284 286 286 287 287 287 288 288 288 289 289 290 290 291 291 291 292 292 293 293 293 292 292 292 291 290 290 290 288 286 285 284 284 283 283 283 283 283 283 283 283 282 282 282 281 281 281 281 281 280 281 280 280
286 285 284 293 289 292 293 292 290 287 287 284 284 286 283 285 283 281 274 274 272 271 272 274 281 280 285 286 287 287 286 288 286 285 285 287 285 285 286 287 288 288 288 289 289 290 290 291 291 292 292 292 292 292 292 291 291 291 290 290 289 287 285 285 284 284 283 283 283 282 282 282 283 283 282 282 282 281 281 281 281 280 280 280 280 280
282 282 285 288 288 292 293 290 291 291 287 285 287 285 287 285 288 282 274 276 273 274 280 276 280 282 284 291 292 293 290 291 288 289 287 287 285 284 286 287 287 288 288 288 289 289 290 290 291 292 291 291 291 291 291 290 290 291 290 289 288 286 285 284 284 284 283 283 282 282 282 282 282 282 281 282 281 281 280 280 280 280 279 279 280 280
285 282 286 286 288 288 287 287 288 288 289 286 282 287 286 287 285 283 278 275 276 276 280 280 281 282 279 283 281 286 287 288 289 290 290 286 283 284 286 287 287 288 288 288 288 289 289 290 290 291 291 291 291 291 291 290 290 291 290 289 287 285 284 284 284 283 283 283 283 282 282 282 282 282 281 281 281 280 280 280 279 279 279 279 280 280
291 284 284 284 285 287 287 291 290 289 289 289 286 288 290 282 281 281 279 279 278 278 280 277 278 282 284 286 284 286 285 290 291 288 285 288 285 285 285 286 285 286 287 287 288 288 288 289 290 290 290 290 290 291 291 291 291 291 290 289 287 286 285 284 284 284 284 284 284 284 283 282 282 282 281 281 281 280 280 279 279 279 279 279 279 279
290 286 283 285 286 287 287 289 285 285 289 288 289 289 285 283 276 279 284 276 277 274 270 279 275 282 284 285 286 291 292 292 292 290 290 290 287 287 286 286 286 287 287 288 288 288 289 289 289 289 289 289 289 289 289 290 290 290 290 289 287 286 285 284 284 284 283 284 284 283 283 282 282 281 281 281 280 280 280 279 279 279 279 279 279 279
288 287 281 283 285 286 284 286 286 288 286 285 285 284 286 284 284 282 280 281 279 271 271 274 279 279 281 286 288 292 291 291 291 291 291 290 287 286 286 287 287 287 287 288 288 288 288 288 288 288 288 289 288 288 288 288 289 290 290 289 287 286 284 284 284 284 284 284 283 283 282 282 281 281 281 280 280 280 280 279 280 279 279 279 279 278
288 285 284 282 282 283 284 284 289 291 293 291 290 287 290 285 282 279 280 281 275 277 278 269 280 284 284 285 290 290 291 290 288 288 290 290 287 286 287 287 287 287 287 287 288 287 287 287 286 286 286 286 286 286 287 287 288 288 288 289 287 286 285 284 284 284 283 283 283 283 282 282 281 281 281 280 280 280 279 279 279 279 279 279 278 278
294 286 284 280 283 286 285 287 285 286 287 286 287 286 291 290 288 283 280 280 278 282 276 274 272 285 288 286 288 290 287 287 286 285 288 289 286 285 287 287 287 287 287 287 287 287 286 286 286 286 286 286 286 286 285 285 287 288 287 287 287 285 284 285 284 284 283 283 283 282 282 281 281 281 280 280 280 279 279 279 279 279 279 278 278 278
294 288 286 284 284 284 285 285 284 284 287 287 286 283 287 288 289 289 287 282 284 279 280 277 277 284 288 285 283 283 282 282 283 284 286 287 287 286 286 286 286 286 286 286 286 286 285 285 285 285 285 285 286 285 285 285 286 287 287 286 286 285 284 283 283 283 282 282 282 282 281 281 281 280 280 280 280 279 279 279 279 279 279 278 278 278
290 287 289 283 278 281 282 286 286 286 287 284 283 287 290 292 290 284 284 282 281 283 285 283 280 285 286 283 281 283 282 283 285 284 284 286 286 285 286 286 287 287 286 285 285 285 284 284 284 285 285 285 286 286 285 285 285 285 286 285 285 284 283 283 283 283 283 283 282 281 281 281 281 281 280 280 280 279 279 279 278 278 278 278 277 278
293 290 288 284 282 280 279 278 281 283 285 286 283 288 288 289 288 285 285 284 282 287 285 284 285 286 286 285 286 285 283 285 285 284 283 285 286 285 285 286 287 287 286 285 285 284 284 284 284 284 285 285 285 285 285 284 285 284 285 284 284 283 283 283 283 283 283 282 282 282 281 281 281 281 281 280 280 279 279 278 278 278 278 278 278 278
288 289 292 290 288 287 288 288 287 289 285 284 285 287 288 289 290 290 289 286 284 286 284 288 289 288 287 287 286 287 285 286 288 287 287 287 285 285 285 286 286 287 287 286 286 285 284 284 284 284 285 285 285 285 285 285 284 284 284 283 283 283 283 283 283 283 283 283 283 282 282 282 282 282 281 280 280 279 278 278 278 278 278 279 278 278
285 288 290 292 291 292 293 285 288 291 287 288 287 286 289 288 288 288 287 286 289 285 283 289 289 288 290 291 289 287 287 285 285 286 287 286 285 286 285 284 287 285 285 285 285 284 284 284 284 284 284 284 284 285 285 285 285 285 284 284 283 284 284 284 283 283 283 283 282 283 283 283 282 281 281 280 279 279 278 278 279 279 279 279 278 278
288 288 290 289 289 291 289 285 289 290 290 289 289 289 287 288 288 287 287 290 289 287 286 290 290 288 291 293 294 294 293 293 292 290 289 288 286 284 283 284 285 285 285 285 285 285 285 284 284 284 283 283 283 283 284 284 284 284 284 284 284 284 283 283 283 282 283 283 283 284 284 283 281 280 280 279 279 279 279 279 279 279 279 278 278 278
290 288 289 290 289 291 289 286 288 289 288 288 288 289 289 288 288 289 289 291 290 289 292 292 289 290 293 294 294 296 296 297 294 289 285 286 286 286 285 285 285 285 285 285 286 286 285 285 284 283 283 282 283 283 284 284 284 284 284 284 284 284 283 283 283 283 283 283 284 283 283 282 282 281 280 279 279 280 280 279 279 279 278 278 278 278
291 289 292 288 288 288 289 286 286 288 288 287 288 288 289 289 289 289 289 290 290 290 292 291 289 289 294 292 293 288 288 287 286 286 288 288 285 285 285 285 285 285 285 286 286 286 285 283 283 283 283 283 283 284 285 285 286 285 284 284 283 283 283 283 283 283 283 283 283 283 283 282 282 281 281 281 280 280 280 279 279 278 278 278 277 277
291 287 287 288 286 287 289 286 285 285 285 286 287 286 286 287 285 288 287 290 288 288 289 289 288 289 293 291 288 286 286 288 288 287 287 286 286 286 286 286 286 286 286 286 285 284 284 284 283 283 283 283 284 284 284 285 285 284 284 284 284 283 283 283 283 283 283 283 283 283 283 282 282 281 281 281 280 280 280 279 278 278 278 277 277 276
290 289 287 287 286 286 289 288 285 285 285 283 285 288 289 288 289 290 291 291 291 292 288 287 288 294 295 286 289 287 285 287 286 287 287 286 285 286 287 288 288 287 287 285 285 285 285 285 285 285 285 285 285 285 285 286 286 285 286 285 285 284 283 284 284 284 284 283 283 283 283 282 282 281 281 281 280 280 279 279 278 278 277 277 277 276
289 289 289 289 285 287 287 286 286 284 278 280 292 295 293 288 288 287 287 289 291 292 291 294 294 295 289 287 290 291 285 287 289 290 291 291 288 286 286 287 287 287 286 286 286 286 286 286 286 286 286 286 286 286 286 286 286 287 287 286 285 284 284 284 284 284 284 284 283 283 283 282 282 281 281 281 280 279 278 278 278 278 278 277 277 276
288 289 288 288 286 286 285 285 282 277 281 290 286 288 296 294 292 290 290 291 291 292 293 292 292 293 291 289 291 292 292 291 288 288 288 287 289 290 289 288 287 287 287 286 286 286 287 287 287 286 286 286 286 286 286 286 286 286 285 285 284 284 284 284 284 284 284 284 284 283 283 282 281 281 281 280 279 278 278 278 278 278 278 277 277 276
288 288 286 284 285 283 281 284 277 280 287 285 286 286 289 293 292 290 288 290 291 291 292 292 293 294 294 288 286 287 287 285 287 286 285 287 288 290 289 288 288 287 287 287 287 287 287 287 288 288 287 287 287 286 286 286 286 286 285 285 285 284 284 284 284 284 284 284 284 283 282 282 281 280 280 279 278 278 278 278 278 278 277 277 276 276
291 289 288 285 287 281 281 283 284 286 285 286 283 284 288 287 287 287 285 288 292 292 292 292 293 294 293 292 288 284 284 286 286 287 284 287 288 286 288 288 288 288 289 289 288 289 289 289 289 289 288 287 287 287 286 286 286 286 285 285 285 284 284 284 284 284 284 284 284 283 282 281 281 280 280 279 278 278 278 278 277 277 276 275 275 274
293 288 288 286 283 286 282 280 280 281 280 286 283 283 291 290 293 293 290 288 291 292 293 292 292 292 292 293 288 283 284 286 287 288 288 286 285 287 285 287 287 287 287 287 288 289 289 289 288 288 288 287 287 287 286 286 285 285 284 284 284 284 283 283 283 284 284 283 283 282 281 281 280 280 280 279 278 278 278 277 276 276 275 274 274 274
288 290 289 287 285 282 282 280 280 279 283 284 284 287 289 284 289 287 283 285 286 288 291 292 291 292 292 292 284 286 286 286 288 291 288 286 285 287 288 285 285 286 287 288 290 290 288 289 288 287 287 286 286 285 284 284 285 285 284 284 284 284 283 283 283 283 283 283 282 281 281 281 281 280 280 279 279 278 277 277 276 276 274 274 274 274
286 286 286 283 283 284 283 281 280 283 283 283 285 283 286 288 292 290 278 281 282 288 290 291 292 292 292 289 285 288 288 286 289 288 287 288 289 286 286 285 284 285 286 287 287 288 287 286 286 285 286 285 285 284 284 285 284 284 284 283 282 282 282 283 283 283 282 281 281 281 280 280 280 280 280 279 278 278 277 277 275 274 274 273 273 273
282 282 285 281 284 284 284 282 283 283 285 281 280 281 285 290 291 283 279 285 283 283 284 290 291 292 290 286 287 287 289 289 286 285 284 284 284 281 281 282 283 285 286 285 285 285 285 285 286 285 285 284 283 282 282 283 283 282 281 280 280 280 282 283 282 281 281 280 280 279 279 279 279 279 279 279 279 278 276 276 276 274 273 272 272 271
282 284 282 285 283 282 283 282 282 283 284 282 281 286 287 288 281 281 288 283 282 283 282 287 288 287 288 288 288 290 285 280 280 280 283 284 285 282 281 280 280 281 281 282 283 283 283 281 280 279 278 278 280 281 281 281 281 280 279 279 280 281 282 279 279 278 278 279 279 279 278 278 278 279 279 277 277 276 275 274 275 274 273 272 271 271
282 282 279 281 284 282 282 281 280 277 286 285 285 284 285 284 283 284 281 281 281 283 284 282 285 284 287 286 286 282 280 279 280 281 280 281 282 282 281 281 282 282 282 281 279 279 282 281 280 279 278 277 278 280 281 281 280 278 278 279 280 279 277 276 277 277 277 277 277 277 278 278 277 278 277 277 276 276 276 274 273 272 271 271 270 270
287 282 282 283 287 280 281 279 280 286 285 287 289 286 288 287 285 284 285 283 280 281 283 283 281 284 285 286 281 279 280 279 277 278 279 278 280 280 280 280 280 280 278 278 280 279 279 280 278 276 273 274 275 277 279 280 279 277 277 279 276 274 274 275 276 276 276 277 277 276 276 276 277 277 277 277 276 275 275 272 272 271 271 270 270 269
287 286 286 283 287 285 284 285 285 286 287 290 290 288 292 292 284 285 285 285 284 280 280 284 284 282 284 285 282 280 279 279 281 280 281 279 279 280 280 280 280 280 280 279 278 275 276 280 277 276 273 272 272 272 276 276 278 276 277 275 275 274 275 274 274 275 275 276 276 276 276 275 276 276 275 275 275 275 274 271 270 270 268 268 269 269
284 286 283 287 286 286 285 285 284 282 285 288 283 282 286 289 282 284 284 284 283 282 283 286 284 285 284 285 282 280 282 280 280 278 278 279 279 279 277 277 276 276 276 275 274 274 273 273 274 275 275 271 271 273 273 273 277 277 275 273 275 274 274 273 274 274 275 275 275 275 273 273 272 273 273 273 274 275 275 273 271 271 269 268 269 269
284 282 286 284 285 286 283 283 283 284 284 287 285 281 280 283 284 283 285 285 284 283 282 282 285 285 285 285 286 283 281 279 280 278 279 278 278 277 278 278 276 276 276 276 275 274 274 274 276 274 274 275 271 270 271 271 273 274 271 273 274 273 273 273 274 274 272 273 272 269 271 273 273 271 271 271 271 272 273 272 271 271 269 268 269 269
283 285 286 283 285 285 285 282 281 279 280 282 281 283 284 283 282 281 281 282 284 282 281 282 284 283 284 284 283 283 280 279 279 278 278 278 278 277 277 277 276 274 273 274 274 272 272 274 275 273 271 274 273 270 270 271 272 271 267 268 271 270 271 272 273 273 272 270 270 270 270 272 270 271 271 270 271 271 270 270 270 270 271 269 269 269
285 287 282 285 284 281 281 281 279 282 283 283 282 282 283 282 282 279 280 281 281 280 280 279 279 283 284 284 281 281 279 278 280 279 279 278 276 276 276 276 275 275 274 274 271 272 276 272 271 271 271 272 271 269 269 269 270 268 267 267 266 269 271 271 269 269 266 266 266 269 268 270 270 271 271 269 268 270 271 271 270 271 271 268 268 270
284 283 283 284 279 281 283 284 282 282 281 284 284 284 283 282 281 280 280 281 281 280 280 280 279 279 280 283 283 282 282 280 279 279 279 279 279 278 276 274 273 273 272 272 270 270 270 270 271 271 270 271 269 268 269 268 268 267 266 264 264 268 271 268 267 266 266 265 267 266 266 266 267 266 268 268 268 267 267 269 273 271 270 268 272 275
285 285 284 282 282 282 287 285 286 286 285 287 287 285 283 281 280 280 281 282 281 282 283 282 280 279 279 279 280 283 282 281 279 279 279 278 279 277 277 275 274 273 273 270 271 269 270 270 268 268 268 269 267 267 267 268 267 266 265 265 266 268 268 268 268 267 267 266 266 267 266 265 265 264 264 264 265 266 266 266 267 275 277 275 274 275
Wind_Speed
1 3 5 7 9 11 8 11 10 3 5 4 3 2 4 4 5 4 4 5 1 0 8 10 11 12 13 10 10 5 4 6 9 11 12 10 9 10 11 12 11 10 9 5 6 6 6 6 5 4 3 4 4 5 6 6 6 6 7 8 7 6 6 7 7 5 7 9 8 6 6 7 5 7 5 5 6 6 5 6 6 6 5 6 7 6
3 3 8 9 13 11 11 9 3 4 1 2 2 2 5 2 7 5 1 1 0 4 4 5 7 12 13 12 11 1 6 12 15 15 14 13 11 12 14 14 12 8 2 5 5 5 4 5 5 4 4 5 7 5 5 7 7 6 6 8 8 7 6 5 5 5 5 4 4 7 7 7 7 6 3 4 4 5 6 7 6 6 5 5 6 5
2 10 11 14 2 2 2 5 4 6 4 1 3 2 1 7 5 9 5 2 2 3 9 7 9 12 11 12 12 7 12 11 13 16 18 17 15 14 13 13 8 6 9 7 7 6 6 7 7 6 5 5 6 7 6 6 7 7 6 6 7 7 6 5 5 5 5 5 6 5 6 5 8 6 4 5 5 6 7 6 6 6 5 5 6 6
4 6 16 4 4 3 1 1 4 1 0 4 1 2 8 3 1 6 1 2 1 4 3 1 7 10 7 8 13 13 13 11 9 12 15 12 15 16 16 14 14 14 12 13 12 11 7 7 7 7 7 7 5 6 6 7 8 7 6 7 6 6 5 6 5 6 7 8 9 9 7 7 6 8 6 7 7 7 7 6 6 6 5 6 7 7
12 4 0 6 8 8 5 3 5 4 7 4 6 4 3 4 7 7 5 4 1 2 1 5 10 13 9 13 10 13 7 5 12 11 10 12 11 8 5 6 12 16 15 13 11 9 10 10 11 10 8 7 7 7 8 8 8 6 8 7 7 6 7 6 8 9 10 11 10 9 10 9 10 7 6 7 7 5 6 6 7 6 6 6 6 7
10 6 3 6 5 5 4 3 7 8 6 3 5 10 10 7 6 4 3 4 6 5 3 2 7 6 4 9 12 6 2 6 10 10 15 15 9 7 9 13 9 9 10 15 17 15 13 11 9 9 9 9 8 8 7 7 7 8 7 7 7 6 6 8 9 10 9 10 13 11 10 8 7 7 5 6 9 7 6 6 4 6 6 4 6 6
5 1 4 6 6 5 6 6 5 7 8 2 6 10 11 8 4 1 1 2 3 4 2 2 1 14 2 5 6 6 5 12 8 7 14 12 10 9 13 10 11 13 10 7 7 9 11 12 12 11 10 10 10 8 7 7 7 7 7 8 8 8 7 6 9 9 8 8 6 9 12 13 12 11 2 3 3 6 5 5 7 5 5 4 6 6
2 3 5 4 5 6 5 6 5 12 6 4 3 3 5 4 5 6 4 6 6 1 3 1 3 5 19 4 7 10 8 11 12 12 11 12 9 10 11 9 9 11 12 13 14 14 12 13 15 15 13 10 10 8 6 7 7 8 8 9 8 7 8 8 9 9 7 9 8 7 7 8 8 10 10 7 5 3 6 7 7 5 5 4 4 6
6 5 5 4 2 4 8 6 4 9 7 4 0 6 4 6 6 3 3 3 1 3 8 1 1 3 10 3 3 4 3 10 15 14 13 11 9 9 8 8 9 11 13 14 14 15 16 15 14 12 12 9 9 9 8 8 9 8 7 8 8 8 8 8 9 9 7 5 6 8 9 8 5 7 9 7 5 6 5 9 5 6 5 5 4 4
2 5 9 10 8 8 5 2 7 11 5 2 5 7 6 7 5 3 3 2 1 1 9 7 6 4 19 3 3 2 2 10 11 11 12 10 5 8 9 8 8 7 8 10 12 12 12 11 11 10 9 9 9 8 7 7 8 8 9 9 10 9 8 9 9 7 5 6 7 8 9 14 9 7 7 7 7 6 5 8 6 5 5 5 5 5
1 4 3 4 7 4 5 2 3 6 2 6 4 7 5 8 4 3 5 2 2 6 10 10 11 8 12 1 8 7 8 9 9 5 6 5 3 4 7 9 9 10 10 10 10 9 9 7 9 10 12 9 9 8 9 8 9 9 9 10 11 11 8 9 9 8 8 7 7 8 11 15 15 11 11 10 8 7 6 8 6 6 5 4 5 5
1 2 1 2 3 3 4 4 4 1 3 6 2 3 4 2 6 3 4 3 1 9 2 8 14 11 12 4 6 7 4 3 6 6 7 8 6 5 5 6 8 9 10 9 9 10 10 8 8 9 11 11 11 10 10 9 9 10 10 10 11 9 9 8 8 7 8 8 6 6 11 13 15 15 12 13 13 10 10 9 9 6 6 4 5 4
5 5 2 4 4 9 3 6 3 3 1 4 5 7 6 4 5 2 3 2 6 9 0 1 1 3 19 10 4 7 10 10 7 9 9 7 8 5 5 7 8 8 9 11 11 11 11 13 14 13 13 12 12 12 12 11 10 10 10 12 12 10 9 9 8 9 8 7 7 8 9 11 12 12 11 11 11 9 10 9 9 8 8 6 7 5
7 1 1 2 1 5 9 9 3 1 5 6 8 7 6 0 2 4 4 2 6 6 3 0 2 9 2 7 11 20 20 11 9 8 9 8 9 7 5 6 7 9 11 12 12 12 13 14 13 13 14 13 12 12 12 11 10 9 10 11 13 12 10 8 7 8 8 7 8 8 9 10 11 11 11 9 10 9 8 8 10 9 9 9 8 8
4 5 8 8 6 6 10 13 14 6 10 11 2 11 10 9 6 4 6 6 7 4 2 4 2 8 4 5 1 6 7 6 5 5 5 6 6 5 3 4 6 8 8 9 11 13 15 15 15 15 14 13 13 12 12 11 11 11 11 11 13 11 9 10 9 7 8 8 8 8 8 9 8 10 9 8 8 9 10 8 8 7 6 8 7 7
10 7 6 8 2 8 13 2 6 6 3 2 2 5 4 9 7 5 4 2 1 2 3 2 7 4 6 3 6 5 7 9 6 6 4 7 2 2 3 7 9 9 9 9 10 11 11 12 13 12 12 13 13 13 12 13 12 12 12 12 12 13 11 10 10 8 9 9 8 8 9 9 9 8 7 7 6 6 6 8 8 8 7 6 7 6
3 5 1 4 4 6 6 3 3 5 8 5 6 8 6 2 5 1 2 1 1 2 13 4 9 7 8 11 9 13 9 13 6 9 7 9 3 2 5 6 7 8 9 10 12 12 12 10 11 13 13 12 12 13 14 14 13 14 13 12 12 10 9 11 11 10 8 9 10 9 9 9 8 10 11 10 9 8 6 6 7 8 7 6 6 7
9 6 1 2 6 1 0 0 3 4 4 8 4 8 2 2 4 4 5 2 1 4 8 6 10 6 2 13 3 1 2 9 9 11 9 6 3 5 6 6 7 9 9 8 7 7 10 12 13 12 11 12 13 14 13 13 11 11 12 13 12 11 12 10 10 10 10 10 10 10 10 9 9 10 9 9 10 8 8 6 6 5 7 7 6 6
3 4 2 1 1 4 2 2 2 2 3 6 6 4 8 4 3 2 4 6 2 7 8 4 2 10 10 11 1 4 3 8 9 7 5 9 6 8 5 6 5 5 6 9 10 10 11 13 13 13 13 11 11 11 11 11 11 10 10 11 12 13 12 11 9 9 9 10 9 9 10 10 9 8 8 7 7 7 8 8 7 7 7 6 5 6
1 5 3 1 2 1 1 3 10 4 2 2 3 3 1 3 1 7 8 2 5 5 2 10 4 14 7 8 10 12 11 10 10 8 9 10 5 6 7 6 8 9 10 10 10 11 11 11 11 11 12 13 13 11 9 9 9 11 11 11 10 9 8 8 10 10 11 10 10 9 7 6 6 7 8 8 9 9 8 8 8 7 7 7 6 5
3 2 7 1 2 2 4 6 9 12 10 1 2 5 1 0 2 4 0 4 5 4 4 5 13 5 7 6 8 11 10 9 9 10 8 7 4 6 7 9 9 9 10 10 10 10 10 9 8 8 7 8 7 6 8 9 11 11 10 11 11 13 11 12 11 10 10 9 9 10 11 10 9 9 8 8 8 9 8 7 7 7 7 6 7 7
2 2 8 3 0 7 6 3 6 11 13 14 17 16 17 11 6 4 8 2 2 3 7 4 16 6 3 4 8 8 7 6 5 4 8 9 3 5 7 8 9 9 9 8 8 8 8 8 8 6 5 5 7 8 9 7 7 9 11 10 10 10 10 11 10 10 10 9 8 9 10 9 7 7 7 8 8 8 8 8 8 7 7 8 7 7
7 3 6 6 7 9 5 0 1 2 0 2 2 5 7 8 7 6 7 7 0 5 4 3 1 18 6 6 7 8 5 4 3 4 9 7 2 4 7 7 7 8 8 9 9 9 9 9 9 9 10 10 10 8 7 7 8 9 9 10 10 10 10 9 10 8 7 8 8 9 7 7 7 8 9 10 9 9 8 8 7 7 8 8 7 5
6 3 3 2 1 2 3 3 1 0 1 2 1 2 5 10 12 11 7 5 9 2 3 3 5 8 3 0 3 3 5 4 3 4 8 8 5 4 5 6 7 6 5 5 6 6 7 7 7 8 9 10 9 9 9 8 8 8 8 9 8 10 9 7 6 7 7 7 8 8 8 9 8 10 10 11 9 10 9 8 7 7 7 7 6 7
6 4 8 2 1 1 3 2 3 2 1 2 3 6 11 11 8 1 4 2 3 11 11 10 16 13 3 3 3 1 4 6 6 5 7 7 5 4 5 5 6 6 6 7 8 8 7 8 10 11 11 11 10 9 9 9 9 9 9 8 9 8 8 7 7 8 9 10 11 10 11 11 10 11 11 11 9 10 9 8 7 6 7 7 7 6
10 9 11 10 13 12 10 11 14 11 11 5 4 7 7 10 11 5 7 6 8 11 14 8 18 5 2 2 3 4 4 7 7 6 4 7 5 4 4 5 7 8 9 9 8 9 12 11 9 9 10 9 9 10 9 8 8 8 8 9 7 9 8 9 8 10 10 10 12 11 12 12 11 12 12 11 10 10 9 8 8 8 6 7 8 7
3 5 14 16 17 19 18 8 3 11 7 8 11 14 16 15 13 12 8 6 17 5 10 20 23 6 5 4 6 7 6 8 6 2 5 5 4 4 5 6 7 8 9 11 11 9 6 9 13 12 11 11 10 9 10 10 10 9 9 9 8 8 9 9 9 10 11 11 11 11 12 12 12 11 11 10 9 8 8 8 8 9 9 8 8 9
3 5 16 22 24 23 19 5 11 21 18 20 17 15 18 16 16 16 15 20 7 7 15 21 6 12 22 10 9 8 9 6 7 6 6 5 5 6 5 4 5 5 5 6 7 11 13 12 10 11 11 10 10 9 9 10 11 12 11 12 10 10 10 9 10 11 11 10 10 12 13 12 10 9 8 6 6 7 8 7 8 8 7 7 8 9
7 12 12 9 14 16 7 7 12 14 17 17 19 19 19 19 16 20 24 23 10 15 23 13 12 17 23 18 15 14 10 12 10 9 8 3 1 2 3 5 6 8 8 10 12 11 12 13 12 10 10 9 8 9 9 8 8 7 7 8 9 9 10 9 10 10 10 11 12 13 11 8 7 6 6 7 7 7 8 8 8 7 7 7 7 7
2 7 7 13 17 17 9 7 10 14 8 9 17 20 20 20 24 27 26 23 19 19 20 17 9 17 23 13 10 13 13 12 6 1 1 3 4 5 5 6 8 8 10 13 13 13 11 9 8 9 9 10 12 12 12 11 11 11 11 11 10 11 9 9 10 11 11 12 12 8 7 7 7 7 7 8 9 9 8 8 8 8 8 8 8 7
7 10 7 4 9 15 13 4 6 12 11 12 11 13 17 21 24 26 23 20 19 19 21 15 11 21 18 4 8 1 2 2 2 5 6 7 5 6 6 7 8 10 11 11 11 9 7 7 8 9 12 14 15 16 14 12 11 10 10 10 9 9 9 9 10 11 11 12 9 7 7 8 8 8 10 9 8 8 9 9 8 8 8 8 8 8
8 4 3 5 10 12 11 12 10 4 6 8 11 14 19 21 19 16 16 17 13 20 21 13 16 23 12 6 1 5 5 7 8 7 6 6 7 7 9 10 10 11 12 11 8 7 9 11 12 14 15 15 14 13 12 11 11 11 13 11 10 10 9 10 11 12 11 10 9 9 10 10 9 10 10 10 11 10 9 8 8 8 8 8 8 7
10 8 8 7 12 13 13 11 10 7 3 6 12 24 27 16 15 16 18 18 22 21 16 18 24 24 13 5 5 5 6 7 6 7 7 5 6 9 11 12 12 11 9 7 8 10 12 14 15 16 15 12 13 13 14 13 12 14 14 13 12 10 11 12 12 11 11 11 11 11 11 10 11 11 11 10 10 8 8 9 9 9 9 10 8 7
6 10 11 8 11 11 8 9 7 7 14 15 18 15 15 18 19 18 19 22 21 18 18 20 21 17 3 7 8 10 8 9 12 11 8 11 10 9 10 9 9 7 6 9 11 13 13 11 10 11 12 13 14 13 11 12 14 13 9 9 8 11 11 12 12 12 12 11 12 12 11 11 10 11 11 9 9 9 9 9 10 9 8 7 7 9
10 11 10 5 7 9 5 10 7 16 18 9 3 3 13 20 21 25 25 21 19 17 17 17 18 19 10 8 11 9 10 9 6 7 8 6 7 10 13 14 11 8 10 9 9 8 9 11 10 9 9 11 11 10 10 11 10 7 9 10 12 12 13 12 12 11 11 12 12 11 10 10 11 11 10 10 9 8 9 9 8 9 9 10 11 11
10 11 3 2 2 4 4 10 9 13 2 4 4 1 3 11 18 17 16 17 17 21 24 25 25 20 15 8 5 4 3 4 1 3 5 6 7 10 9 9 9 9 10 10 11 10 9 11 12 14 14 9 8 10 11 12 10 10 11 10 12 12 12 12 12 12 12 12 12 12 11 12 11 10 9 9 8 9 9 10 11 12 10 9 8 6
17 10 8 8 6 9 5 12 13 6 6 4 2 5 10 11 10 16 16 22 24 19 19 20 23 20 16 11 6 2 1 1 3 6 4 9 9 5 5 5 7 9 10 10 11 12 11 10 10 9 6 8 11 11 12 10 11 11 10 11 12 11 11 11 12 13 13 13 11 11 11 11 10 9 9 9 10 11 12 13 12 9 6 8 8 8
11 17 10 13 7 9 8 7 3 5 13 17 4 2 6 5 14 14 11 14 9 18 19 19 21 18 16 16 6 4 3 1 12 10 7 6 4 5 4 4 6 6 5 4 4 3 4 5 4 5 8 9 9 9 7 8 10 10 10 10 9 10 10 11 14 13 11 11 11 10 9 8 9 10 11 11 14 14 12 9 6 7 7 9 10 11
5 7 10 15 6 8 7 10 10 13 12 2 7 11 10 5 7 7 4 16 5 13 14 17 18 19 19 18 6 7 4 10 15 13 5 7 5 6 8 4 4 4 5 6 7 7 6 6 6 6 5 6 8 7 7 8 10 10 10 10 9 10 11 13 13 11 11 10 7 7 9 10 11 11 11 12 12 11 11 11 11 9 8 8 7 8
11 9 7 10 9 9 12 11 12 5 7 4 8 4 9 9 12 10 4 15 3 13 15 18 21 22 18 9 10 10 10 12 17 7 6 12 11 6 7 7 5 4 4 3 2 3 5 6 7 5 7 8 8 7 9 9 10 10 10 9 7 9 12 13 12 8 6 6 8 8 8 8 10 10 11 12 10 9 10 7 6 8 9 8 7 7
6 0 9 16 14 12 12 8 3 6 3 2 5 4 8 10 11 12 21 5 3 3 4 12 17 14 9 9 12 11 14 7 3 3 6 8 8 4 2 2 2 2 5 5 5 5 6 5 7 9 9 6 7 7 8 9 8 8 7 7 8 11 13 9 5 6 6 6 7 7 9 8 10 11 10 10 10 9 7 7 8 7 8 8 7 6
8 9 4 7 11 12 11 12 10 4 5 6 1 12 9 10 9 18 5 1 5 6 3 7 8 6 9 13 12 10 4 2 3 3 7 6 7 5 5 5 5 4 4 2 3 5 6 4 4 4 3 4 7 7 8 9 9 8 7 7 10 14 6 4 5 6 6 7 7 8 8 9 8 9 9 7 7 7 8 7 8 8 8 7 7 8
12 9 9 11 5 1 2 8 4 10 5 11 13 3 5 8 6 3 1 2 0 4 9 4 6 7 9 8 6 6 6 4 4 5 5 7 9 9 8 8 9 8 7 5 3 1 6 7 6 6 5 5 6 7 8 10 9 8 7 11 12 4 5 5 6 6 7 7 7 8 8 8 9 9 7 8 9 10 9 7 8 7 7 8 8 9
5 9 5 8 10 11 11 10 8 3 7 14 21 14 10 7 3 6 8 2 0 3 5 6 3 6 7 10 9 6 6 7 3 4 5 4 5 5 5 5 5 6 5 4 6 7 6 8 7 7 5 5 5 6 7 10 10 8 9 11 3 5 5 6 6 6 7 7 7 7 7 8 9 9 8 9 8 8 8 8 8 8 8 9 9 9
9 10 2 8 5 8 8 7 2 6 14 13 8 4 11 12 3 6 1 5 8 5 4 5 7 5 7 10 9 10 6 5 8 8 10 9 9 10 10 8 7 8 7 8 6 4 5 9 9 7 5 4 5 5 6 6 10 8 8 4 5 5 7 6 6 7 7 7 7 8 7 7 7 8 7 7 8 9 8 7 8 8 6 7 8 8
3 4 1 3 5 1 1 4 2 1 3 7 2 1 2 7 2 3 6 5 2 4 8 7 7 9 7 8 11 3 7 8 9 4 4 6 6 4 4 5 4 4 5 6 5 4 5 7 7 8 7 3 2 4 5 5 7 9 5 4 5 5 6 7 7 6 7 7 6 6 5 6 5 5 6 7 8 9 9 10 10 10 8 8 9 10
3 2 3 3 1 7 9 3 5 4 4 9 6 1 2 1 4 4 5 4 6 6 6 2 10 10 10 10 10 10 8 8 8 5 6 6 6 6 6 6 5 5 7 7 5 6 6 6 7 6 6 6 3 4 4 5 2 3 4 6 5 5 6 7 7 6 5 6 5 5 5 7 7 6 6 6 6 6 7 7 8 8 8 9 10 10
4 5 4 1 4 8 4 1 2 4 3 2 4 4 4 5 2 2 1 0 5 4 2 5 8 7 6 7 7 10 9 7 9 8 7 7 7 7 6 7 7 5 3 4 5 4 5 5 6 6 5 5 4 4 4 3 3 1 3 4 5 5 6 6 6 7 6 6 5 6 6 7 7 8 7 6 7 7 7 6 7 9 10 11 11 10
3 9 5 8 7 1 3 3 2 2 1 4 5 5 3 3 6 2 3 7 8 9 7 4 1 8 9 8 7 9 10 7 8 10 9 6 5 5 5 5 5 6 6 5 4 5 6 5 5 5 5 3 2 3 3 2 1 1 3 4 5 6 6 5 3 3 3 4 4 5 4 5 6 6 7 6 6 6 6 8 9 9 8 5 7 9
6 8 3 7 4 7 12 10 10 5 5 9 9 9 7 6 6 7 5 6 7 9 7 9 5 4 3 6 10 11 12 9 5 7 8 8 7 6 5 5 5 6 4 3 4 4 4 5 5 5 4 3 2 3 3 2 2 1 2 4 4 5 5 4 4 3 3 4 4 3 4 3 4 3 5 6 6 6 5 4 6 7 7 7 6 12
13 9 8 8 9 10 12 6 14 4 1 5 12 8 7 5 7 10 10 10 6 8 10 12 9 4 4 2 2 8 9 10 9 6 7 5 6 5 6 8 8 5 5 5 6 3 4 3 3 4 3 3 3 4 3 3 2 3 2 4 5 5 5 5 5 4 4 4 3 4 4 3 4 3 4 4 5 5 6 6 5 9 12 11 10 11
Wind_Direction
107 145 182 196 211 210 204 195 204 179 137 102 102 123 214 220 280 274 262 257 238 47 230 226 233 244 256 253 259 213 190 236 248 243 237 232 217 214 219 218 215 211 212 183 190 189 193 194 199 195 179 179 158 151 151 141 139 148 141 135 134 135 133 136 135 128 127 126 112 84 92 104 95 81 60 65 65 54 60 64 68 72 78 88 91 86
71 192 236 220 216 204 200 204 129 99 95 164 136 180 273 149 253 235 251 359 306 171 292 247 247 251 253 259 260 182 173 226 224 232 237 233 219 218 216 218 211 203 112 165 196 201 197 198 195 194 185 172 158 167 165 154 154 151 147 141 140 141 141 135 129 128 109 97 114 134 133 125 102 94 76 75 39 66 66 61 62 67 66 77 83 86
182 210 228 226 190 103 153 186 202 186 184 70 187 208 299 264 255 280 266 298 267 137 257 274 265 256 251 251 259 217 212 229 222 218 225 220 219 220 218 216 193 172 194 186 196 189 193 193 190 188 185 183 170 166 169 157 150 150 150 147 146 146 142 129 119 113 112 103 95 106 119 117 102 64 59 76 75 74 73 60 57 55 57 72 79 78
249 276 244 212 128 130 72 141 161 126 53 181 125 144 228 230 79 294 303 8 27 177 270 329 296 275 268 257 249 243 223 234 240 234 238 225 221 218 215 201 192 197 184 190 189 190 187 188 188 186 185 181 169 163 159 161 159 155 155 156 146 136 127 124 118 111 96 94 91 83 91 77 78 114 94 85 75 75 78 52 57 49 54 60 82 76
205 200 318 162 171 170 179 123 125 151 236 244 192 198 233 224 231 190 255 322 285 332 37 311 288 278 229 251 254 252 241 257 257 249 250 247 236 233 215 202 202 197 188 184 183 184 185 186 191 187 181 173 174 170 168 165 163 158 161 157 141 135 133 123 127 125 121 112 100 100 90 90 94 79 89 91 69 59 81 81 63 53 54 62 76 80
264 253 92 103 159 174 140 152 196 159 230 283 227 197 216 217 236 266 341 1 2 330 348 59 324 274 266 228 237 264 17 235 247 239 245 244 230 209 208 213 196 200 192 186 185 184 183 181 175 182 183 182 176 174 171 165 158 153 153 147 136 123 124 133 133 138 140 141 138 135 124 117 111 113 124 128 135 128 106 101 97 68 55 68 80 80
218 198 136 163 147 170 182 190 223 164 201 205 270 200 216 218 221 247 265 74 298 250 300 28 210 289 175 245 232 249 235 252 260 227 246 246 231 210 220 211 190 192 182 183 178 175 177 184 180 184 187 184 177 173 162 154 150 151 149 148 147 143 136 135 140 146 142 142 152 149 143 144 145 134 72 52 56 112 109 104 92 83 61 53 90 81
144 219 99 87 115 151 171 208 236 176 153 231 251 167 189 185 202 224 182 191 237 257 296 52 108 267 296 255 212 204 219 251 262 259 248 246 236 221 223 210 197 190 185 182 184 184 186 182 181 183 183 182 178 161 158 153 149 154 156 149 146 145 147 154 155 158 164 154 155 136 122 127 137 141 142 139 122 100 115 102 96 92 76 64 72 97
159 186 167 162 146 151 194 204 184 157 152 218 253 144 155 180 198 156 162 196 210 30 289 190 91 310 252 302 347 156 219 260 258 256 262 249 230 229 225 215 203 192 188 180 179 186 186 185 183 179 178 178 163 160 164 163 156 152 150 146 144 150 152 160 167 164 172 169 156 144 131 111 75 111 122 122 117 120 118 107 97 97 95 86 72 82
308 177 203 177 164 207 215 233 157 160 187 257 122 86 80 76 68 111 99 107 321 34 259 183 180 208 275 186 113 338 204 244 252 252 252 263 233 213 219 215 198 184 181 187 190 184 184 182 176 174 166 168 168 163 162 157 151 153 152 153 155 158 162 168 170 171 160 154 148 146 139 126 126 123 117 125 129 128 131 114 116 112 109 105 94 83
251 295 173 142 204 200 121 33 166 183 153 130 87 73 22 41 30 20 63 88 18 257 253 180 199 161 275 177 187 157 208 206 240 272 276 287 294 249 222 201 188 183 181 183 180 181 180 177 167 165 172 170 161 161 161 161 162 160 160 160 165 166 165 170 171 166 162 156 164 151 144 138 140 146 142 138 138 136 134 129 131 128 121 109 108 102
347 11 158 247 103 96 104 79 26 70 136 133 105 122 66 342 12 33 340 38 125 267 214 197 185 185 220 284 273 247 284 251 220 239 263 279 265 244 214 205 192 181 179 173 168 171 167 163 172 171 171 171 168 164 167 168 166 166 166 166 165 167 168 171 167 165 163 161 160 156 147 146 149 151 155 153 153 157 148 143 140 135 118 112 102 98
265 222 240 324 209 133 117 87 6 47 100 91 100 91 130 248 33 302 22 264 201 236 315 11 129 358 241 242 254 265 255 264 217 220 234 247 265 245 224 205 190 180 171 175 177 169 173 176 175 179 176 171 173 177 173 173 171 166 167 168 165 175 172 174 166 167 166 159 157 155 152 148 150 150 154 152 153 160 151 150 145 150 142 141 125 128
268 264 304 253 52 233 146 157 176 67 214 144 152 153 128 139 220 263 266 258 301 297 284 246 109 250 313 291 225 250 255 244 253 234 234 234 249 253 221 199 184 185 184 183 178 178 179 178 179 179 177 178 176 176 173 171 171 171 171 173 171 177 173 165 165 166 163 165 155 155 153 154 154 153 155 158 157 159 153 154 153 156 153 152 151 151
234 302 237 138 239 175 185 196 182 158 158 201 103 157 184 153 156 213 204 213 222 225 290 275 123 234 120 242 244 249 273 294 264 260 253 255 257 268 254 193 187 186 192 184 183 184 182 182 178 179 179 178 178 175 173 173 176 173 174 173 174 170 176 166 166 165 165 157 152 153 155 156 156 153 153 158 161 158 156 160 151 150 151 149 153 153
217 238 269 205 323 160 189 204 106 91 79 219 172 56 97 216 143 213 202 170 269 325 332 207 210 193 192 259 301 247 263 276 260 271 268 267 264 238 198 185 192 193 189 188 188 187 189 184 179 179 181 180 177 177 176 177 176 177 177 175 175 172 172 170 164 171 165 158 153 155 158 163 156 149 144 145 151 154 154 154 154 153 156 152 145 144
45 272 288 333 47 176 189 129 180 147 196 206 106 201 205 164 143 283 24 85 120 39 254 137 276 279 300 278 246 266 278 275 277 270 259 258 261 176 210 204 198 195 190 191 193 189 185 183 188 185 181 180 178 178 182 182 180 178 173 173 169 171 172 172 172 165 164 158 155 162 161 161 160 159 163 163 160 156 153 153 154 154 153 144 150 151
154 234 303 101 214 299 135 177 95 23 144 98 188 225 107 103 112 142 229 322 67 227 274 144 242 286 52 282 336 11 255 277 273 258 258 259 222 212 222 212 200 199 198 194 194 192 190 189 187 186 187 184 183 181 180 182 178 177 172 170 167 169 175 179 167 164 164 163 161 163 170 170 168 163 160 159 159 155 150 151 145 138 145 163 161 152
135 284 299 311 131 304 353 110 30 349 14 150 192 201 133 237 233 281 93 255 202 243 281 272 246 258 188 244 304 287 282 270 273 275 285 264 225 230 219 221 208 187 182 190 192 188 190 192 191 188 185 185 186 185 182 176 171 170 168 170 171 175 179 172 170 165 166 168 168 172 172 170 165 164 159 154 150 149 155 158 157 161 158 142 147 149
113 187 285 356 134 298 15 139 197 193 356 39 69 96 25 98 166 143 198 177 115 263 43 283 72 263 169 223 192 231 232 237 257 284 267 260 233 217 216 204 199 195 197 194 194 196 194 195 193 187 183 183 185 184 182 175 171 171 169 171 174 170 164 167 172 172 172 174 167 166 159 164 164 161 160 157 154 158 162 162 162 158 154 163 151 158
211 157 250 321 313 106 192 197 199 160 173 140 135 193 177 11 252 113 336 150 167 185 191 287 294 263 255 213 184 208 210 221 219 237 265 276 225 204 204 198 200 203 198 198 196 192 189 191 188 190 191 187 180 182 177 181 182 173 169 176 173 170 174 178 177 173 175 168 172 164 170 169 168 167 159 154 160 157 163 164 162 164 161 145 165 161
149 167 204 154 194 228 245 255 206 196 193 184 179 191 185 148 147 154 249 69 121 143 240 154 258 267 271 168 194 218 220 215 225 214 265 275 238 199 202 203 198 200 202 193 191 183 184 184 182 180 178 178 179 186 186 180 179 178 177 177 174 177 179 176 178 179 173 173 165 171 170 170 167 158 155 159 162 164 166 167 166 162 152 169 169 168
168 149 101 192 213 206 217 248 230 215 97 188 183 236 187 184 159 166 209 219 88 241 100 194 327 273 193 173 199 213 213 228 228 217 256 276 255 215 209 202 203 199 189 188 183 183 183 183 182 180 181 183 188 187 180 177 185 185 180 179 183 178 185 182 179 175 166 165 165 171 170 164 166 162 166 167 171 170 169 169 166 162 166 169 166 167
94 123 182 270 332 314 306 301 358 100 107 332 309 116 138 196 195 204 204 164 185 169 190 236 251 263 11 154 226 274 276 268 266 211 249 275 269 245 200 191 196 192 186 181 180 175 177 174 167 171 184 185 187 184 185 183 183 186 188 183 175 186 177 174 168 161 156 158 166 168 165 174 171 171 175 177 176 174 174 169 166 164 168 167 161 163
153 233 180 121 9 345 343 325 293 19 32 231 175 204 203 207 199 100 85 59 187 215 183 169 238 246 253 339 307 326 301 292 264 243 205 252 265 225 200 190 192 183 168 177 180 175 168 172 179 187 187 188 188 186 180 183 188 181 183 179 181 181 174 166 159 162 170 171 172 174 176 179 179 181 180 180 177 179 170 168 164 168 171 161 164 157
187 163 168 192 211 221 221 201 210 198 198 203 238 202 208 195 187 143 227 198 223 227 169 205 244 245 267 323 295 276 298 286 267 240 252 219 237 217 195 183 185 183 186 180 178 173 184 186 182 187 191 187 188 184 180 182 183 180 179 186 180 174 170 173 168 174 172 178 178 180 183 184 183 187 184 181 179 175 170 166 170 171 171 169 162 154
187 188 189 195 205 222 228 229 102 106 94 191 213 187 203 207 203 203 217 200 220 210 171 222 229 227 263 229 234 248 235 239 258 263 236 250 243 222 197 187 186 189 185 183 183 181 170 185 191 191 189 188 184 183 182 180 181 183 184 184 181 178 175 173 171 175 178 183 185 181 188 188 190 186 184 182 176 166 168 173 172 174 177 173 166 162
62 201 210 209 211 220 228 177 171 150 180 202 197 202 205 196 196 195 204 222 175 93 239 237 206 245 248 217 224 231 242 248 258 259 267 259 236 206 198 178 177 185 183 172 177 185 194 195 189 187 187 182 186 184 183 185 187 185 185 186 181 178 178 176 175 177 182 181 187 190 193 193 184 183 181 172 165 171 171 171 176 180 174 168 169 168
170 211 216 224 245 246 232 155 170 174 184 193 199 199 199 199 191 202 217 222 158 208 231 236 167 226 248 233 219 222 223 230 220 226 224 217 177 161 148 168 185 193 188 190 198 195 192 194 192 183 177 179 171 183 187 186 188 185 187 188 182 176 184 174 175 180 182 186 194 199 193 178 171 165 166 165 165 172 178 179 178 174 172 174 171 171
162 257 218 206 220 231 222 177 181 185 199 199 201 203 201 193 199 206 217 215 204 224 236 242 195 230 241 241 211 223 220 232 234 189 103 162 203 182 185 198 201 199 197 201 201 199 196 190 173 177 173 175 183 187 189 189 188 186 186 191 187 183 179 164 181 182 189 194 198 189 173 169 167 169 163 169 181 181 177 177 176 176 177 180 178 171
159 227 202 174 216 233 227 174 187 203 187 203 216 211 206 205 206 207 214 219 217 236 242 245 262 262 250 161 215 148 98 87 97 187 196 210 191 187 197 211 212 209 210 210 202 192 174 166 173 177 186 191 191 191 189 190 187 182 188 191 187 183 174 170 181 190 191 196 188 177 168 170 175 170 180 184 178 178 180 179 176 179 182 181 177 172
185 249 71 144 210 234 221 190 202 170 209 213 216 216 218 208 207 209 217 217 196 220 233 242 250 250 250 156 111 152 157 176 196 199 210 220 204 192 204 218 214 214 212 206 187 166 171 178 182 189 194 196 194 188 187 186 181 178 194 188 185 181 167 179 189 191 192 190 182 182 179 179 175 178 185 180 187 185 181 175 176 183 184 179 175 175
186 183 184 175 218 227 229 177 171 141 136 247 243 227 216 202 197 206 215 210 208 209 214 219 235 240 239 134 185 215 188 213 210 203 214 223 215 205 210 217 218 218 210 176 172 183 186 190 192 194 197 194 193 191 194 183 177 192 193 185 186 168 176 186 190 192 192 189 187 189 186 179 179 184 184 189 185 179 174 179 183 184 182 188 184 169
186 200 208 176 223 226 208 154 141 167 215 219 229 235 203 187 192 202 213 214 215 201 214 220 233 245 172 173 201 220 195 214 210 218 191 185 196 212 228 230 226 212 183 184 189 191 196 193 197 198 196 195 195 195 183 181 192 195 180 172 164 176 182 185 192 192 194 190 194 192 187 180 180 186 189 184 181 177 181 181 190 189 186 178 176 187
191 197 208 165 214 218 128 130 172 217 224 228 356 276 181 191 194 204 216 213 216 216 233 246 248 249 221 199 208 214 213 225 221 208 213 220 190 193 205 212 209 192 192 191 197 200 195 193 195 192 190 198 191 178 173 189 190 159 160 171 178 185 185 190 189 193 193 196 196 190 182 180 185 189 187 182 179 179 182 187 190 189 191 188 191 189
187 196 146 249 136 45 145 177 218 222 249 309 300 329 237 180 192 200 233 235 219 211 214 227 236 240 236 218 235 244 247 252 298 245 208 221 200 203 194 199 196 183 191 197 194 199 190 193 193 192 199 178 163 178 183 189 174 170 182 175 182 185 188 186 191 196 196 200 194 189 188 185 187 185 180 176 175 179 187 192 197 198 193 190 194 196
186 189 180 213 177 203 189 204 228 20 319 256 270 224 151 161 170 178 210 234 220 214 210 224 235 239 246 240 204 181 88 73 306 289 240 209 214 200 192 202 168 184 193 199 194 198 200 197 194 194 164 166 179 178 190 176 171 177 170 176 188 184 185 186 195 201 201 200 191 191 188 184 180 179 175 174 178 190 196 198 201 200 178 188 194 190
186 188 189 203 209 193 186 211 280 256 246 238 209 219 182 176 173 187 193 257 219 214 213 215 230 235 239 243 197 151 100 2 274 253 228 224 177 151 172 183 190 186 180 169 171 171 171 182 175 167 169 172 180 186 164 161 168 170 175 183 179 178 185 190 205 204 198 197 193 189 177 172 172 177 183 185 193 198 202 200 195 195 182 191 193 200
251 226 188 202 184 161 202 215 206 219 236 171 189 182 179 121 127 102 81 253 220 181 199 204 222 227 224 228 173 129 124 234 252 252 202 162 178 180 166 170 153 159 168 173 174 181 186 185 174 161 153 162 183 173 155 156 160 167 183 182 180 182 189 203 209 200 197 195 180 167 171 178 183 188 188 194 200 197 196 195 197 191 180 200 200 212
201 200 175 217 214 197 200 207 220 214 241 231 196 180 157 141 122 116 172 247 194 178 192 191 210 217 220 199 145 172 181 224 238 255 182 179 174 162 163 152 143 147 172 181 203 171 145 125 117 140 161 179 186 154 156 156 163 177 180 182 168 183 203 209 206 192 183 174 172 174 177 179 185 190 191 199 198 194 200 190 175 180 187 196 196 200
186 192 204 205 204 209 208 235 303 281 281 210 180 163 150 146 137 160 217 222 231 193 202 189 210 210 185 156 163 186 214 212 211 182 127 127 113 104 68 91 129 155 166 178 159 131 132 147 153 167 178 173 153 151 150 150 156 175 175 161 174 201 212 204 173 172 175 165 165 172 180 182 188 192 198 196 196 192 188 181 188 180 183 192 191 188
201 182 211 198 217 208 207 215 230 277 232 146 58 155 169 118 191 213 212 22 146 184 168 185 194 177 162 176 185 202 163 167 80 84 135 132 135 132 129 111 100 63 28 26 98 124 117 108 97 91 92 124 144 145 149 151 163 170 162 171 197 214 189 148 162 154 154 168 176 180 181 186 192 193 194 187 172 177 192 192 182 186 187 183 184 196
180 173 197 196 180 64 127 214 187 231 228 130 124 67 280 181 241 181 119 352 232 175 156 192 174 183 162 179 173 140 139 132 137 136 126 135 130 143 145 150 146 150 143 129 104 138 130 128 133 140 145 151 150 154 158 155 160 165 168 188 211 169 139 151 146 154 162 170 178 183 186 188 187 188 184 186 186 186 193 180 181 183 176 180 188 198
171 186 182 210 183 194 192 204 212 242 117 167 146 178 197 205 182 145 133 155 290 166 166 147 179 176 173 150 148 140 139 126 94 126 110 117 140 127 145 147 133 123 123 125 141 154 150 126 132 127 129 140 148 152 156 154 154 164 177 209 145 144 139 144 155 152 165 178 186 183 188 189 190 191 188 186 180 185 184 181 185 182 186 187 188 195
197 202 161 199 169 187 209 196 199 180 156 181 176 176 188 196 126 176 191 154 158 214 203 150 173 170 168 146 141 142 142 185 161 173 154 165 159 159 159 165 156 153 144 138 136 131 120 132 131 119 98 102 130 145 153 154 149 162 190 204 157 151 154 151 153 160 174 184 187 190 192 185 189 190 188 181 175 182 189 185 174 188 195 181 195 199
323 214 185 140 230 356 347 128 142 293 220 205 311 221 228 168 207 157 160 133 218 166 174 169 166 159 149 151 131 176 157 164 148 172 132 140 142 140 112 108 105 100 102 101 96 92 112 104 113 121 122 112 140 153 162 161 151 162 204 181 162 156 146 149 149 169 187 188 189 192 172 181 192 188 187 182 187 193 191 185 185 193 187 187 203 205
243 135 184 183 249 165 237 154 155 193 211 202 212 11 343 92 167 182 186 202 151 167 170 177 155 157 158 158 158 154 159 158 146 144 145 141 148 154 155 143 136 143 141 132 154 134 115 120 119 132 141 151 182 172 181 170 167 140 152 154 153 147 146 152 166 177 180 186 182 167 170 182 187 187 188 192 194 198 193 187 188 192 192 195 202 209
265 171 170 188 161 185 245 340 295 321 268 233 179 159 195 194 155 138 198 241 131 120 123 141 124 123 140 148 154 149 153 161 146 155 158 165 165 165 158 152 143 116 111 128 145 122 113 122 140 150 158 173 189 182 181 170 156 115 98 126 134 139 143 156 173 176 186 183 172 180 179 189 184 181 191 196 188 194 202 202 190 195 203 199 201 201
136 119 201 176 184 268 353 277 278 32 342 251 237 250 272 191 156 111 123 129 132 121 117 97 74 159 162 155 144 138 142 179 168 158 157 158 158 162 162 151 145 138 140 130 155 151 155 154 151 164 167 190 197 174 170 159 131 118 119 129 133 138 143 159 167 157 161 164 163 189 188 189 187 191 189 192 203 217 203 194 198 207 224 223 194 205
112 197 173 126 137 201 210 206 143 152 224 223 222 211 205 194 160 141 129 139 144 134 138 113 77 69 103 146 152 152 158 167 168 156 156 166 170 162 134 131 137 140 153 154 133 149 137 149 151 165 179 199 181 163 175 166 173 159 133 125 134 133 140 147 145 157 175 171 180 180 174 193 194 189 189 189 200 206 256 256 207 210 212 224 202 212
191 181 154 175 180 211 222 196 182 192 340 212 191 179 175 173 156 154 167 164 173 154 147 127 120 101 107 131 164 158 153 159 169 164 147 159 173 161 153 144 143 154 160 149 136 143 150 152 152 172 182 178 168 181 174 161 174 173 157 144 153 149 144 146 156 177 188 171 188 177 178 173 181 183 185 189 182 193 206 243 273 237 228 220 213 219